Regional Weather Roundup
Issued by NWS

Home | Current Version | Previous Version | Text Only | Print | Product List | Glossary On
Versions: 1 2 3 4 5 6 7 8 9 10 11 12 13 14 15 16 17 18 19 20 21 22 23 24 25 26 27 28 29 30 31 32 33 34 35 36 37 38 39 40 41 42 43 44 45 46 47 48 49 50
000
ASUS46 KSEW 202010
RWRWA

WASHINGTON REGIONAL WEATHER ROUNDUP
NATIONAL WEATHER SERVICE SEATTLE WA
100 PM PDT WED SEP 20 2017

NOTE:"FAIR" INDICATES FEW OR NO CLOUDS BELOW 12,000 FEET WITH NO
SIGNIFICANT WEATHER AND/OR OBSTRUCTIONS TO VISIBILITY.

WAZ507-509-555>559-202100-
SEATTLE, TACOMA, EVERETT, AND VICINITY

CITY           SKY/WX    TMP DP  RH WIND       PRES   REMARKS
EVERETT        LGT RAIN  53  48  83 W8        29.72R
BOEING FIELD   PTSUNNY   56  48  74 CALM      29.72R
RENTON         CLOUDY    56  48  74 CALM      29.72R
SEATAC AIRPORT PTSUNNY   54  47  77 VRB3      29.72R
JBLM-MCCHORD   NOT AVBL
PUYALLUP       PTSUNNY   50  48  93 CALM      29.74R
BREMERTON      CLOUDY    54  48  80 E6        29.73R
JBLM-FT LEWIS  NOT AVBL
TACOMA NARROWS LGT RAIN  50  49  96 SW5       29.74R
$$

WAZ001-503-506-510-514-515-202100-
NORTH INTERIOR

CITY           SKY/WX    TMP DP  RH WIND       PRES   REMARKS
BELLINGHAM     CLOUDY    56  48  74 W7        29.71R
FRIDAY HARBOR  CLOUDY    55  49  80 VRB7      29.73R
EASTSOUND      CLOUDY    54  50  87 NW8       29.73R
PORT ANGELES   MOSUNNY   58  45  62 VRB3      29.73R
EDIZ HOOK      FAIR      56  46  67 NW5       29.73R
PORT TOWNSEND  FAIR      57  48  72 VRB7G17   29.73R
NAS WHIDBEY    PTSUNNY   58  47  66 NW9       29.76R
ARLINGTON      CLOUDY    57  46  66 NW12      29.71R
BURLINGTON     CLOUDY    57  48  72 NW12      29.71R
$$

WAZ020-022-039-040-504-511-512-202100-
SOUTHWEST INTERIOR

CITY           SKY/WX    TMP DP  RH WIND       PRES   REMARKS
SHELTON        PTSUNNY   56  48  74 VRB5      29.71R
OLYMPIA        PTSUNNY   52  48  86 VRB5      29.74R
CHEHALIS       CLOUDY    54  48  82 NW5       29.75R
KELSO          CLOUDY    54  47  77 N6        29.75R
VANCOUVER      LGT RAIN  58  48  69 SW8       29.71R
SCAPPOOSE, OR  LGT RAIN  53  50  89 NW6       29.72R
PORTLAND, OR   LGT RAIN  59  47  64 SW17G28   29.71R
$$

WAZ021-516-517-202100-
WASHINGTON COAST

CITY           SKY/WX    TMP DP  RH WIND       PRES   REMARKS
FORKS          PTSUNNY   61  45  55 NW6       29.71R
HOQUIAM        PTSUNNY   56  49  77 S8        29.74R
ASTORIA, OR    MOSUNNY   57  45  64 N5        29.74R
$$

WAZ019-023-024-040-567>569-202100-
CASCADE MOUNTAINS AND COLUMBIA GORGE

CITY           SKY/WX    TMP DP  RH WIND       PRES   REMARKS
STAMPEDE PASS  FOG       38  37  97 VRB5      29.66R VSB 1/4
TROUTDALE, OR  PTSUNNY   60  47  61 SW17G26   29.71R
HOOD RIVER, OR CLOUDY    55  45  67 SW5G18    29.69R
THE DALLES, OR MOSUNNY   63  44  50 NW18G24   29.67S
$$

WAZ026-027-041>044-520-521-202100-
EAST SLOPES

CITY           SKY/WX    TMP DP  RH WIND       PRES   REMARKS
OMAK           MOSUNNY   60  35  39 CALM      29.59F
WENATCHEE      CLOUDY    53  36  52 VRB3      29.63R
ELLENSBURG     CLOUDY    52  45  77 SW5       29.65R
YAKIMA         CLOUDY    54  42  64 N12       29.67R
SUNNYSIDE ARPT MOCLDY    53  43  68 W5        29.66S
YAKIMA TC      NOT AVBL
$$

WAZ028-034-035-202100-
COLUMBIA BASIN

CITY           SKY/WX    TMP DP  RH WIND       PRES   REMARKS
EPHRATA        LGT RAIN  47  42  83 SW7       29.65R
MOSES LAKE     LGT RAIN  50  44  80 W7        29.65S
PASCO          LGT RAIN  53  50  89 CALM      29.67R
RICHLAND ARPT  CLOUDY    56  49  79 CALM      29.67R
HERMISTON, OR  PTSUNNY   60  45  57 W18G24    29.66R
$$

WAZ036>038-202100-
NORTHEAST WASHINGTON

CITY           SKY/WX    TMP DP  RH WIND       PRES   REMARKS
SPOKANE GEIGER LGT RAIN  48  42  80 S6        29.63R
SPOKANE FELTS  CLOUDY    51  42  71 VRB3      29.63R
FAIRCHILD AFB  NOT AVBL
COEURDALENE,ID CLOUDY    51  41  68 SW6       29.63R
DEER PARK      CLOUDY    50  42  74 S5        29.63S
$$

WAZ029>033-202100-
SOUTHEAST WASHINGTON

CITY           SKY/WX    TMP DP  RH WIND       PRES   REMARKS
PULLMAN        CLOUDY    48  43  82 SW7       29.66R
LEWISTON, ID   LGT RAIN  52  47  83 NW5       29.66R
WALLA WALLA    PTSUNNY   55  45  68 SW14      29.65S
PENDLETON, OR  PTSUNNY   57  44  62 W17G25    29.66R
$$



USA.gov is the U.S. government's official web portal to all federal, state and local government web resources and services.